ECHOSTAR 12 (RAINBOW 1)

Last updated on Nov. 4, 2019, 4:20 a.m. UTC

1 27852U 03033A   19307.35623721  .00000057  00000-0  00000+0 0  9993
2 27852   0.0487  86.0646 0001309  72.9151 243.5276  0.98954301 59702
UTC
Height (km)
Latitude
Longitude
Inclination
Orbital Period
UTC large
Height (km)
Speed (km/s)
/
Latitude / Longitude
Inclination (degrees)
Orbital Period (minutes)
Azimuth
Elevation
Range (km)
Doppler Factor
iOS Compass Heading
iOS Angle

Next 30 passes for location: Hong Kong

Rise time Rise Azimuth (degrees) Set time Set Azimuth (degrees) Duration Max altitude (degrees)

No matching passes for this satellites